Location: Mount Tamalpais State Park
(37.9108°N, 122.6128°W)
Time: 14:43:48
(UTC-07:00)

Daily predictions for brighter satellites

Satellite Brightness Start Highest point End
(mag) Time Altitude Azimuth Time Altitude Azimuth Time Altitude Azimuth
Cosmos 1452 Rocket 3.8 20:43:11 10° S 20:48:09 45° ESE 20:53:10 10° NNE
Meteor 2-3 Rocket 4.5 20:42:43 10° SSW 20:48:14 59° W 20:53:45 10° N
Cosmos 1190 Rocket 4.0 20:47:12 10° NNW 20:52:24 73° ENE 20:57:35 10° SSE
Cosmos 1238 Rocket 4.3 20:50:43 10° NE 20:53:11 18° E 20:55:56 10° ESE
Abrixas 4.3 20:52:10 10° S 20:53:56 15° SE 20:55:42 10° E
SPOT 5 4.5 20:53:55 10° ESE 20:57:56 22° ENE 21:02:00 10° NNE
H-2A R/B 3.0 20:59:00 10° S 21:02:40 68° W 21:06:24 10° NNW
CENTAUR R/B 3.9 20:56:16 10° NW 21:03:56 52° WSW 21:11:55 10° S
Meteor 1-27 Rocket 3.9 21:03:20 10° N 21:08:45 53° ENE 21:14:06 10° SSE
H-2A R/B 2.9 21:06:50 11° SE 21:10:30 32° ENE 21:14:15 10° N
Cosmos 1408 3.2 21:07:40 10° SSE 21:11:02 36° E 21:14:24 10° NNE
Cosmos 1782 2.8 21:07:51 10° N 21:11:55 89° WSW 21:15:57 10° S
YAOGAN 11 4.2 21:09:31 10° SSE 21:14:01 76° ENE 21:18:36 10° N
ATLAS 5 CENTAUR R/B 3.5 21:08:53 10° NW 21:14:38 43° WSW 21:20:41 10° S
COS B Rocket 3.6 21:15:19 10° NNE 21:18:58 38° E 21:21:39 14° SSE
CZ-4 DEB 2.8 21:16:02 10° S 21:19:11 76° WSW 21:22:22 10° NNW
Cosmos 2154 Rocket 4.0 21:14:19 10° S 21:20:29 69° E 21:26:39 10° NNE
Cosmos 1174 3.0 21:19:41 10° NNW 21:22:49 84° WSW 21:24:59 17° SSE
Okean 3 4.0 21:19:26 10° N 21:23:30 41° E 21:26:32 16° SE
Cosmos 676 Rocket 4.0 21:18:18 10° NNW 21:23:33 83° ENE 21:28:37 11° SSE
Cosmos 1954 Rocket 4.0 21:21:29 10° NNW 21:26:41 68° ENE 21:31:07 14° SSE
GPS 2-05 Rocket1 3.0 21:24:11 10° WSW 21:27:52 61° S 21:30:20 19° ESE
Cosmos 1825 2.1 21:25:00 10° S 21:28:45 68° E 21:32:34 10° NNE
Cosmos 1939 Rocket 2.8 21:27:49 14° SSE 21:31:05 69° ENE 21:35:00 10° N
Atlas Centaur 2 2.9 21:34:26 10° SW 21:36:45 16° SSW 21:37:47 14° S
Cosmos 1833 Rocket 4.0 21:35:25 10° N 21:40:03 26° ENE 21:42:58 17° E
Cosmos 1844 Rocket 4.5 21:36:59 10° SW 21:42:07 35° WNW 21:47:16 10° N
Cosmos 1741 Rocket 4.5 21:38:25 10° N 21:43:26 45° ENE 21:46:14 24° SE
PSLV R/B 4.0 21:43:22 29° E 21:43:49 31° ENE 21:46:29 10° N
Cosmos 2278 Rocket 2.5 21:38:49 10° SSW 21:44:28 70° WNW 21:50:09 10° NNE
Okean 2 Rocket 3.0 21:42:12 11° S 21:46:26 69° E 21:50:49 10° NNE
CZ-4 SHROUD 4.0 21:47:01 31° E 21:47:31 34° ENE 21:50:22 10° N
Cosmos 1782 Rocket 3.7 21:49:25 10° S 21:53:52 79° W 21:58:21 10° N
Envisat 3.1 21:52:23 15° S 21:56:33 74° WSW 22:01:39 10° NNW
OAO 1 Rocket 4.5 21:53:34 10° WSW 21:58:47 59° S 22:01:37 26° ESE
SEDSat Delta rocket 3.7 21:55:18 10° SW 21:59:08 30° S 21:59:21 30° SSE
COSMOS 2487 3.2 21:57:30 10° NNW 22:01:01 49° WSW 22:02:51 24° SSW
OAO 3 Rocket 3.4 21:56:56 10° WSW 22:01:45 52° SSE 22:03:42 32° ESE
Meteor 2-13 Rocket 4.4 21:56:23 10° S 22:02:33 87° E 22:08:45 10° N
Cosmos 614 Rocket 4.0 21:57:33 10° N 22:02:36 61° ENE 22:04:45 33° SE
UNK 4.4 21:59:08 10° NNE 22:05:15 68° ESE 22:10:07 15° S
Cosmos 2082 Rocket 2.5 22:00:43 10° NNW 22:06:17 52° ENE 22:08:39 32° ESE
ERS-1 Rocket 4.2 22:03:29 10° SSW 22:08:07 37° W 22:12:48 10° NNW
Elektron 3 4.1 22:05:26 10° NNW 22:08:26 79° NE 22:09:36 43° SE
CZ-3A R/B 4.5 22:00:21 10° W 22:09:16 19° SW 22:11:50 15° S
Cosmos 1975 Rocket 3.3 22:06:05 10° NNW 22:10:23 65° W 22:12:50 25° S
APEX 4.2 22:07:14 10° SW 22:11:02 57° WNW 22:16:02 10° NNE
ISS -0.2 22:10:01 10° WNW 22:12:11 17° NNW 22:14:23 10° NNE
Cosmos 2218 Rocket 4.0 22:11:24 20° S 22:15:56 73° E 22:22:18 10° N
Cosmos 1140 Rocket 3.8 22:12:24 10° NNW 22:17:28 61° WSW 22:20:11 27° S
Meteor 1-14 Rocket 4.1 22:13:54 18° S 22:18:16 86° E 22:23:52 10° N
Terra 3.1 22:19:00 24° ENE 22:19:32 24° ENE 22:23:20 10° NNE
Cosmos 2297 4.0 22:16:27 10° SSW 22:22:07 68° WNW 22:27:51 10° NNE
DNEPR-1 R/B 4.0 22:17:43 10° NW 22:22:49 62° WSW 22:24:13 41° S
Cosmos 1536 Rocket 3.8 22:18:59 10° N 22:23:21 51° E 22:23:51 48° ESE
Cosmos 1959 Rocket 4.4 22:22:15 22° S 22:26:24 88° E 22:32:32 10° N
NOAA 11 4.2 22:24:52 41° SE 22:26:48 71° ENE 22:32:18 10° N
CZ-4B R/B 3.2 22:22:17 10° NNE 22:27:12 82° ESE 22:29:10 36° S
SL-08 R/B 4.5 22:23:49 22° S 22:28:14 87° E 22:34:44 10° N
Abrixas 3.4 22:26:39 10° WSW 22:29:11 47° WNW 22:29:11 47° WNW
MetOp-B 4.4 22:27:17 29° S 22:29:59 64° WSW 22:35:18 10° NNW
Cosmos 1727 Rocket 4.0 22:25:22 10° N 22:31:31 64° E 22:33:31 42° SE
Meteor 2-8 Rocket 4.5 22:25:43 10° N 22:31:51 65° E 22:33:50 43° SE
USA 234 3.9 22:26:28 10° ENE 22:31:10 32° ESE 22:31:10 32° ESE
H-2A R/B 2.6 22:32:29 39° E 22:33:26 42° ENE 22:38:24 10° N
SPOT 5 3.9 22:32:31 22° SSW 22:35:36 45° W 22:40:45 10° NNW
Cosmos 1242 Rocket 4.2 22:35:31 10° NNW 22:38:45 30° W 22:39:50 25° SW
USA 245 3.4 22:40:34 59° WSW 22:40:38 59° W 22:44:43 10° NNW
YAOGAN 6 3.7 22:42:22 35° WSW 22:42:42 36° W 22:45:59 10° NNW
H-2A R/B 4.3 22:43:58 12° SW 22:46:32 19° W 22:49:36 10° NW
Lacrosse 5 2.1 22:49:52 53° E 22:49:52 53° E 22:53:59 10° NE
SPOT 1/Viking Rocket 3.9 22:47:30 42° SSW 22:49:05 61° W 22:54:15 10° NNW
CZ-4C R/B 3.7 22:50:24 57° NNE 22:50:24 57° NNE 22:53:58 10° N
Cosmos 2369 Rocket 3.7 22:53:08 21° ENE 22:53:08 21° ENE 22:55:39 10° NE
ARGOS 3.3 22:50:50 46° SSW 22:52:18 66° WSW 22:57:40 10° NNW
Cosmos 1339 Rocket 4.4 22:46:40 10° N 22:52:51 79° E 22:54:22 54° SSE
Cosmos 2151 Rocket 4.4 22:51:23 33° SW 22:53:00 48° W 22:57:24 10° N
Gbstr 26 Del rocket 4.1 22:51:35 10° NW 22:56:12 37° NNE 22:56:49 35° NE
Cosmos 1821 Rocket 4.5 23:01:40 42° E 23:01:40 42° E 23:07:26 10° NNE
Cosmos 1300 Rocket 3.7 23:03:17 67° NNE 23:03:17 67° NNE 23:07:10 10° N
Okean 1 Rocket 3.4 23:10:37 61° NNE 23:10:37 61° NNE 23:14:20 10° N
ASTEX 1 3.7 23:06:21 10° NNE 23:10:36 57° NE 23:10:36 57° NE
Iridium 4 Rocket 4.5 23:06:47 10° NNE 23:11:58 39° ENE 23:11:58 39° ENE
Cosmos 1809 Rocket 4.5 23:13:45 59° E 23:13:51 59° E 23:19:56 10° NNE
Cosmos 1943 Rocket 4.4 23:22:12 12° ENE 23:22:12 12° ENE 23:22:43 10° ENE
USA 229 DEB 4.1 23:16:52 10° NW 23:23:45 53° WSW 23:25:08 47° SSW
USA 229 4.1 23:16:58 10° NW 23:23:51 54° WSW 23:25:13 47° SSW
Cosmos 1833 Rocket 3.4 23:18:51 10° NW 23:24:06 42° WSW 23:24:40 41° WSW
Okean 1-7 Rocket 4.3 23:24:35 10° N 23:28:04 52° NNW 23:28:04 52° NNW
CZ-3C R/B 4.4 23:30:36 10° WSW 23:34:29 14° SW 23:34:29 14° SW
Cosmos 1535 Rocket 4.4 23:41:23 79° SW 23:41:46 84° W 23:48:12 10° N
NOSS 3-1 (A) 4.1 23:34:40 10° NNW 23:42:18 67° NE 23:43:53 56° ESE
Cosmos 2082 Rocket 4.0 23:45:56 10° NW 23:49:53 20° W 23:50:31 19° WSW
Meteor 2-14 Rocket 4.4 23:54:03 79° NNE 23:54:03 79° NNE 23:59:49 10° N
